Regional Weather Roundup
Issued by NWS Pendleton, OR

Home | Current Version | Previous Version | Text Only | Print | Product List | Glossary On
Versions: 1 2 3 4 5 6 7 8 9 10 11 12 13 14 15 16 17 18 19 20 21 22 23 24 25 26 27 28 29 30 31 32 33 34 35 36 37 38 39 40 41 42 43 44 45 46 47 48 49 50
000
ASUS46 KPDT 271425
RWRPDT
PENDLETON REGIONAL WEATHER ROUNDUP
NATIONAL WEATHER SERVICE PENDLETON OREGON
600 AM PST SAT DEC 27 2014

NOTE: FAIR INDICATES FEW OR NO CLOUDS BELOW 12,000 FEET WITH NO
SIGNIFICANT WEATHER AND/OR OBSTRUCTIONS TO VISIBILITY.

# INDICATES UNOFFICIAL STATION AND DATA

WAZ520-271510-
EAST SLOPES OF WASHINGTON CASCADES

CITY            SKY/WX      TMP DP  RH  WIND    PRES   REMARKS
#BULLFROG 2SW   N/A         36  35  96  CALM    27.73F
#BUMPING DAM    N/A         30  N/A N/A S5      N/A
#CLE ELUM HS    N/A         33  30  89  CALM    30.11F
#CLE ELUM 2NW   N/A         32  30  92  CALM    N/A
#CLE ELUM LAKE  N/A         32  31  96  CALM    30.20F
#CLIFFDEL 2NW   N/A         29  26  88  CALM    N/A
#GLENWOOD       N/A         30  29  96  CALM    30.31F
#MANASTASH CYN  N/A         28  23  81  CALM    30.10F
#NELSON         N/A         33  31  92  CALM    30.23F
#NELSON 3SW     N/A         31  29  92  CALM    30.42F
#NILE           N/A         26  25  96  CALM    29.49F
#RONALD 2NW     N/A         34  30  85  CALM    30.00F
#SNOWDEN        N/A         38  35  89  CALM    N/A
#TEANAWAY 4NE   N/A         28  26  92  CALM    N/A
#TROUT LAKE HS  N/A         37  36  96  CALM    N/A
#TROUT LAKE 1NE N/A         35  33  92  CALM    30.27F
$$

WAZ521-271510-
SIMCOE HIGHLANDS

CITY            SKY/WX      TMP DP  RH  WIND    PRES   REMARKS
#BICKLETON HS   N/A         34  29  82  W2      34.25S
#CENTERVILLE 1SWN/A         37  35  92  CALM    30.25F
#GOLDENDALE     N/A         33  32  96  CALM    N/A
#GOLDENDALE 1NE N/A         33  32  96  CALM    N/A
#GOLDENDALE 1S  N/A         33  32  96  CALM    30.18F
#GOLDENDALE 5WNWN/A         34  32  92  CALM    30.27F
#GOODNOE HILLS  N/A         37  32  82  W10     N/A
#LYLE 6NE       N/A         37  36  96  CALM    30.25F
$$

WAZ026-271510-
KITTITAS VALLEY

CITY            SKY/WX      TMP DP  RH  WIND    PRES   REMARKS
ELLENSBURG AP   MOCLDY      28  24  85  CALM    30.16F
#ELLENSBURG CWU N/A         27  24  88  CALM    30.18F
#ELLENSBURG 3NE N/A         29  25  85  CALM    30.17F
#ELLENSBURG     N/A         30  30  100 CALM    N/A
#ELLENSBURG 1E  N/A         27  23  85  CALM    N/A
#KITTITAS 4N    N/A         30  24  78  CALM    30.21F
#KITTITAS 3S    N/A         24  22  92  CALM    30.24F
#THORP 6N       N/A         33  29  85  CALM    30.24F
$$

WAZ027-271510-
YAKIMA VALLEY

CITY            SKY/WX      TMP DP  RH  WIND    PRES   REMARKS
YAKIMA AIRPORT  CLOUDY      29  25  85  CALM    30.22F
YAKIMA-VAGABOND MOCLDY      27  24  88  SE5     30.21F
#DONALD 2NE     N/A         30  25  81  CALM    29.05F
#GRANDVIEW      N/A         30  27  88  CALM    30.27F
#MABTON         N/A         31  29  92  CALM    30.22F
#MOXEE 2E       N/A         45  30  55  NW8     29.98R
#NACHES 2SW     N/A         30  26  85  CALM    30.19S
#OUTLOOK DOT    N/A         N/A N/A N/A CALM    N/A
#SELAH 8E       N/A         29  27  92  W2      N/A
#TERRACE HTS    N/A         28  25  88  CALM    30.24F
#TOPPENISH      N/A         30  27  88  CALM    30.18F
#WAPATO 4NE     N/A         30  25  81  CALM    29.05F
#WEST VALLEY    N/A         30  26  85  CALM    30.25F
#W YAKIMA       N/A         30  26  85  CALM    30.26F
#WHITE SWAN 5E  N/A         29  27  92  N2      30.27F
#WILEY CITY 3W  N/A         27  22  81  CALM    30.22F
$$

WAZ028-271510-
LOWER COLUMBIA BASIN...WASHINGTON

CITY            SKY/WX      TMP DP  RH  WIND    PRES   REMARKS
PASCO           CLOUDY      33  33  100 CALM    30.26S
PROSSER AWOS    N/A         32  32  100 N3      30.25F
RICHLAND AWOS   CLOUDY      36  32  85  SW5     30.26F
#BASIN CITY 5SW N/A         31  29  92  CALM    30.22F
#CONNELL 5N     N/A         32  30  92  SE2     30.25F
#CONNELL 5NW    N/A         32  30  92  E6      30.22F
#ELTOPIA        N/A         35  32  89  E2      30.22F
#KAHLOTUS       N/A         35  31  85  W3      30.28S
#KENNEWICK      N/A         36  35  96  CALM    27.73F
#KENNEWICK 3S   N/A         38  34  85  SW7     30.26S
#PASCO-BROADMOORN/A         33  28  82  CALM    30.19F
#PATERSON       N/A         32  30  92  CALM    30.27F
#PROSSER        N/A         35  30  82  SW2     30.25F
#SAGEMOOR 2W    N/A         33  30  89  CALM    30.11F
#TOUCHET 2S     N/A         43  33  67  S9      30.25F
#WEST PASCO     N/A         35  32  89  CALM    30.29F
$$

WAZ029-271510-
FOOTHILLS OF THE BLUES...WASHINGTON

CITY            SKY/WX      TMP DP  RH  WIND    PRES   REMARKS
WALLA WALLA AP  CLOUDY      41  32  70  S15     30.24F WCI 33
#COLLEGE PLACE  N/A         41  30  65  S3      30.26F
#DAYTON SCHOOL  N/A         40  26  57  S12     30.23F WCI 33
#LOWDEN 2SE     N/A         41  33  73  S3      30.23F
#PLEASANT VIEW 1N/A         34  30  85  S7      30.32S
#PRESCOTT       N/A         38  32  79  CALM    30.28S
#SUDBURY        N/A         40  N/A N/A CALM    N/A
#WHITMAN COLLEGEN/A         42  33  70  S13     30.32F WCI 35
#WAITSBURG 5S   N/A         37  32  82  S14     30.38F WCI 28
#WAITSBURG 8N   N/A         36  16  44  S7      30.21S
#WALLA WALLA 5E N/A         42  34  73  S15     N/A    WCI 34
#WALLA WALLA U  N/A         41  34  76  S2      30.28F
#WHITMAN MISSIONN/A         41  34  76  S1      30.29F
$$

WAZ030-271510-
BLUE MOUNTAINS...WASHINGTON

CITY            SKY/WX      TMP DP  RH  WIND    PRES   REMARKS
#DIXIE 5SE      N/A         34  28  78  S15     30.11F WCI 24
#SKI BLUEWOOD   N/A         28  26  92  S5      30.21F
$$

ORZ009-041-WAZ024-271510-
COLUMBIA RIVER GORGE

CITY            SKY/WX      TMP DP  RH  WIND    PRES   REMARKS
HOOD RIVER AP   PTCLDY      41  39  93  CALM    30.26F
THE DALLES AP   MOCLDY      37  34  89  CALM    30.28F
#ARLINGTON AIRPON/A         37  35  92  W6      30.09R
#ARLINGTON HS   N/A         40  34  79  NW3     30.23F
#CELILO DOT     N/A         40  33  76  CALM    N/A
#LYLE           N/A         38  35  89  E2      30.29F
#MARYHILL 2W    N/A         39  37  92  W1      N/A
#MOSIER 1S      N/A         40  37  89  CALM    30.27S
#MURDOCK        N/A         40  38  92  E1      30.30F
#RUFUS DOT      N/A         38  34  85  CALM    N/A

$$

ORZ510-271510-
NORTH CENTRAL OREGON

CITY            SKY/WX      TMP DP  RH  WIND    PRES   REMARKS
#CHENOWITH 1W   N/A         37  37  100 SW2     N/A
#COW CYN RST AREN/A         29  24  81  W5      N/A
#DUFUR 9E       N/A         37  31  79  S16     30.32F WCI 28
#GRASS VALLEY   N/A         32  29  89  S5      N/A
#GRASS VALLEY 1SN/A         33  29  85  S6      30.32F
#KENT DOT       N/A         34  22  61  S7      N/A
#MAUPIN SCHOOL  N/A         31  29  92  N1      30.27F
#MORO SCHOOL    N/A         36  32  85  S2      30.23F
#SHANIKO 5WSW   N/A         28  19  68  S12     N/A    WCI 18
#SHANIKO 4NW    N/A         29  24  81  S8      30.19F
#TYGH VALLEY 2NEN/A         29  27  92  CALM    30.31F
#WAPANITIA AIRPON/A         36  29  75  W1      30.32F
#WASCO DOT      N/A         37  31  79  S7      N/A
#WASCO AIRPORT  N/A         38  31  76  S5      N/A
#WASCO 5NE      N/A         37  32  82  N2      30.29F
$$

ORZ511-271510-
CENTRAL OREGON

CITY            SKY/WX      TMP DP  RH  WIND    PRES   REMARKS
BEND AIRPORT    MOCLDY      21  16  81  SE5     30.26F
MADRAS AIRPORT  CLOUDY      28  27  96  NE3     30.29S
PRINEVILLE AP   MOCLDY      23  21  92  S3      30.26F
REDMOND AIRPORT MOCLDY      24  20  84  SE5     30.25F
#BEND 1SW       N/A         25  22  88  SW2     N/A
#BEND-AWBREY    N/A         29  25  85  S7      30.36F
#BEND-KIM LN    N/A         28  24  85  SW6     30.20F
#CROOKED RVR RANN/A         28  24  85  CALM    30.36F
#LAKE BILLY CHINN/A         29  15  55  S3      30.36F
#POWELL BUTTE 3EN/A         28  22  78  E5      N/A
#POWELL BUTTE   N/A         24  21  88  S1      29.85F
#PRINEVILLE 3N  N/A         24  22  92  CALM    30.35F
#WARM SPRINGS   N/A         27  25  92  CALM    30.27S


ORZ509-271510-
EAST SLOPES OF OREGON CASCADES

CITY            SKY/WX      TMP DP  RH  WIND    PRES   REMARKS
#BLUE BOX PASS  N/A         31  -18 11  CALM    N/A
#BLACK BUTTE RNCN/A         25  23  92  CALM    30.37S
#CAMP SHERMAN   N/A         22  19  88  CALM    30.43F
#LA PINE DOT    N/A         14  11  88  SE2     N/A
#LA PINE 4NW    N/A         15  12  88  CALM    30.49F
#LAVA BUTTE DOT N/A         21  19  92  CALM    N/A
#MT BACHELOR-MIDN/A         25  23  92  E9      N/A
#SISTERS AIRPOR N/A         21  21  100 CALM    30.17S
#SISTERS ODOT   N/A         22  N/A N/A CALM    N/A
#SISTERS 1NW    N/A         21  19  92  NE6     N/A
#SISTERS 3N     N/A         21  15  77  CALM    30.25S
#SUNRIVER       N/A         20  18  92  S1      30.33F
#TUMALO 3W      N/A         30  19  63  S2      30.22F
#WANOGA BUTTE D N/A         23  17  77  W3      N/A

$$

ORZ044-271510-
LOWER COLUMBIA BASIN...OREGON

CITY            SKY/WX      TMP DP  RH  WIND    PRES   REMARKS
HERMISTON       CLOUDY      34  30  85  E3      30.25F
#BOARDMAN 3W    N/A         32  31  96  CALM    29.97F
#BOARDMAN 8SW   N/A         35  32  89  CALM    30.27F
#ECHO 8SW       N/A         40  30  67  W1      30.23F
#IONE SCHOOL    N/A         42  30  62  W3      30.23F
#IRRIGON 4NW    N/A         31  31  100 SE1     N/A
#UMATILLA SCHOOLN/A         28  28  100 S1      30.33S
#UMATILLA       N/A         36  30  79  CALM    30.24F
$$

ORZ507-271510-
NORTHERN FOOTHILLS OF THE BLUES

CITY            SKY/WX      TMP DP  RH  WIND    PRES   REMARKS
PENDLETON AIRPT CLOUDY      38  28  67  S12     30.24F WCI 30
#ADAMS 3WNW     N/A         35  30  82  CALM    30.32F
#ATHENA         N/A         36  31  82  SE3     30.32F
#CAYUSE         N/A         39  32  76  S15     30.29F WCI 31
#HELIX SCHOOL   N/A         35  30  82  S7      30.31F
#HELIX 3N       N/A         35  30  82  S14     30.18F WCI 26
#HOLDMAN 5SE    N/A         36  32  85  CALM    30.24S
#HOLDMAN 6E     N/A         34  30  85  NW5     30.10F
#M-F GROVE ELEM N/A         40  30  67  SE1     30.22F
#M-FREEWATER 5SEN/A         39  31  73  E5      30.23F
#PENDLETON DNTN N/A         39  30  70  CALM    29.05S
#PDT AQUATIC CTRN/A         40  30  67  W2      30.23S
#PENDLETON 5NE  N/A         37  30  75  CALM    30.19F
#PENDLETON 7NW  N/A         36  30  79  CALM    25.69F
#PILOT ROCK     N/A         39  25  57  S9      30.25F
#TUTUILLA       N/A         39  32  76  S8      30.29F
#UMAPINE 2E     N/A         42  35  76  S7      30.22F
#WESTON SCHOOL  N/A         36  29  75  S7      30.20F

$$

ORZ508-271510-
SOUTHERN FOOTHILLS OF THE BLUES

CITY            SKY/WX      TMP DP  RH  WIND    PRES   REMARKS
LEXINGTON       CLOUDY      39  32  76  SE5     30.25F
#AJAX           N/A         37  22  54  S8      30.14F
#CONDON SCHOOL  N/A         32  28  85  CALM    30.16F
#CONDON 5W      N/A         31  25  78  S12     30.16F WCI 22
#FOSSIL SCHOOL  N/A         33  28  82  CALM    30.20F
#HEPPNER EOC    N/A         38  29  70  SE7     30.24F
#HEPPNER 4NE    N/A         35  29  78  CALM    30.30F
#LEXINGTON 2SE  N/A         42  31  65  S7      30.19F
#MIKKALO        N/A         39  27  62  SW6     30.21F
#RUGGS 2SW      N/A         35  29  78  SW8     30.33F

$$

ORZ502-503-271510-
BLUE MOUNTAINS

CITY            SKY/WX      TMP DP  RH  WIND    PRES   REMARKS
MEACHAM         CLOUDY      27  24  88  CALM    30.20S
#BATTLE MTN DOT N/A         23  23  100 S7      N/A
#HARDMAN 10S    N/A         22  21  96  S3      30.50F
#HEPPNER 15SE   N/A         30  27  88  CALM    30.09F
#LADD CYN SMT   N/A         21  15  77  SE10    N/A
#LADD CREEK ODOTN/A         25  14  62  SW8     N/A
#LONG CREEK HS  N/A         28  26  92  CALM    30.19F
#N POWDER DOT   N/A         19  18  96  CALM    N/A
#PIKES PEAK     N/A         31  28  88  S22G30  27.99S WCI 18
#TOLLGATE       N/A         25  24  96  CALM    30.05F
#TROY SCHOOL    N/A         29  25  85  CALM    30.22F
#UKIAH          N/A         19  17  92  CALM    30.50F
#WESTON 4E      N/A         30  29  96  CALM    30.29F
$$

ORZ505-271510-
JOHN DAY BASIN

CITY            SKY/WX      TMP DP  RH  WIND    PRES   REMARKS
JOHN DAY        MOCLDY      22  18  84  E9      30.27F
#DAYVILLE SCHOOLN/A         32  29  89  CALM    30.16S
#MONUMENT HS    N/A         27  22  81  CALM    30.30F
#MT. VERNON 5SE N/A         22  20  92  CALM    30.20F
#WINLOCK        N/A         28  23  81  CALM    30.31F
$$

ORZ506-271510-
OCHOCO AND JOHN DAY HIGHLANDS

CITY            SKY/WX      TMP DP  RH  WIND    PRES   REMARKS
#BUCK CREEK DOT N/A         24  24  100 CALM    N/A
#HORSE RIDGE DO N/A          9   5  83  CALM    N/A
#KEYES SMT DOT  N/A         19  17  92  SE6     N/A
#PAULINA SCHOOL N/A         N/A N/A N/A CALM    30.23F
#SENECA         N/A          8  N/A N/A CALM    N/A
#SENECA 9NW     N/A         10   8  91  CALM    30.48F
$$

ORZ049-271510-
GRANDE RONDE VALLEY

CITY            SKY/WX      TMP DP  RH  WIND    PRES   REMARKS
LA GRANDE       CLOUDY      30  18  60  S12     30.25S WCI 20
#COVE           N/A         29  24  81  CALM    30.03S
#COVE SCHOOL    N/A         30  25  81  CALM    30.21F
#COVE 6NW       N/A         28  22  78  SE2     30.45S
#ELGIN 3N       N/A         28  18  66  S8      29.96F
#ELGIN 1E       N/A         31  24  75  CALM    N/A
#ISLAND CITY 4N N/A         43  43  100 CALM    30.27F
#LADD CYN DOT   N/A         27  17  65  S20     N/A    WCI 13
#UNION 1S       N/A         28  22  78  S12     30.32S WCI 18
$$

ORZ050-271510-
WALLOWA COUNTY

CITY            SKY/WX      TMP DP  RH  WIND    PRES   REMARKS
JOSEPH AIRPORT  CLOUDY      23  18  81  CALM    30.20F
#ENTERPRISE AP  N/A         22  13  68  NE10    30.13F
#ENTERPRISE HS  N/A         22  17  81  CALM    30.21F
#IMNAHA SCHOOL  N/A         29  20  69  SW5     30.28F
#IMNAHA 10S     N/A         23  17  77  SW7     30.24F
#JOSEPH 3N      N/A         20  14  77  NE3     30.19F
#JOSEPH 3W      N/A         23  13  65  CALM    29.97F
#LOSTINE        N/A         18  14  84  CALM    30.24S
#MT HOWARD 8000 N/A         14  12  92  CALM    29.97S
#PROMISE 1S     N/A         25  20  81  NE1     30.45F
#SHEEP RDG 7000 N/A         18  16  92  CALM    30.43F
#WALLOWA SCHOOL N/A         19  16  88  CALM    31.45S



$$



USA.gov is the U.S. government's official web portal to all federal, state and local government web resources and services.